Content
SEND FEEDBACK

Daily
Averages
Monthly
Summary
Belgium

ST. TRUIDEN, BELGIUM


Home > Europe > Belgium
Elevation: 246 feet     Latitude: 50 48N     Longitude: 005 12E

WEATHER
 
SELECT A DAY
Number of Records: 298,254;   Date Range: 7/1/96 - 9/29/14
 
SHARE

PRINT THIS DATA

[ ← Previous Day ]
WEATHER ALMANAC - JANUARY 31, 2013
[ Next Day → ]
[ °C ]   °F
Weather ElementAverageHighLow
Temperature44 °F48.2 °F (4:20 pm)42.8 °F (1:50 am)
Dewpoint38.5 °F42.8 °F (3:20 pm)35 °F (10:00 am)
Humidity80 %87 % (2:20 am)65 % (10:00 am)
Barometer29.98 in30.12 in (4:00 am)29.86 in (3:20 pm)
Wind Speed21.4 mph31.1 mph (12:20 pm)
Wind Gust47.2 mph (12:20 pm)
Weather ElementAverage
Visibility6.6 mi
Wind DirectionWSW (232.9 °)

Weather ElementTotal
Precipitation---
Heating Degree Days19.5 (Base 65)
Averaged from 55 records on January 31, 2013
WEATHER CONDITIONS BREAKOUT
WIND DIRECTION BREAKOUT
WEATHER BY HOUR - JANUARY 31, 2013
[ °C ]   °F
Local TimeTemperatureDewpointHumidityBarometerVisibilityWind DirectionWind SpeedGust SpeedPrecipitationEventsConditions
12:50 AM44.6 °F37.4 °F76 %30.06 in6.2 miWSW (240°)21.9 mphScattered Clouds
1:00 AM44.0 °F38.0 °F73 %30.09 in11.0 miWSW (240°)22.4 mphPartly Cloudy
1:20 AM44.6 °F39.2 °F81 %30.06 in6.2 miWSW (240°)18.4 mphScattered Clouds
1:50 AM42.8 °F37.4 °F81 %30.06 in6.2 miWSW (240°)20.7 mphScattered Clouds
2:20 AM42.8 °F39.2 °F87 %30.09 in6.2 miWSW (240°)18.4 mphScattered Clouds
2:50 AM42.8 °F37.4 °F81 %30.09 in6.2 miWSW (240°)17.3 mphScattered Clouds
3:20 AM42.8 °F39.2 °F87 %30.09 in6.2 miWSW (240°)18.4 mphScattered Clouds
3:50 AM42.8 °F39.2 °F87 %30.09 in6.2 miWSW (240°)18.4 mphMostly Cloudy
4:00 AM43.0 °F39.0 °F79 %30.12 in7.0 miWSW (240°)17.9 mphPartly Cloudy
4:20 AM42.8 °F39.2 °F87 %30.09 in6.2 miWSW (240°)17.3 mphMostly Cloudy
4:50 AM42.8 °F37.4 °F81 %30.09 in6.2 miWSW (240°)16.1 mphMostly Cloudy
5:20 AM42.8 °F39.2 °F87 %30.09 in6.2 miSW (230°)16.1 mphMostly Cloudy
5:50 AM42.8 °F37.4 °F81 %30.06 in6.2 miSW (230°)17.3 mphMostly Cloudy
6:20 AM42.8 °F37.4 °F81 %30.04 in6.2 miSW (220°)18.4 mphScattered Clouds
6:50 AM42.8 °F37.4 °F81 %30.04 in6.2 miSSW (210°)15.0 mphPartly Cloudy
7:00 AM43.0 °F38.0 °F75 %30.06 in7.0 miSSW (210°)15.7 mphScattered Clouds
7:20 AM42.8 °F37.4 °F81 %30.04 in6.2 miSW (220°)19.6 mphMostly Cloudy
7:50 AM42.8 °F37.4 °F81 %30.04 in6.2 miSW (220°)18.4 mphMostly Cloudy
8:20 AM42.8 °F37.4 °F81 %30.04 in6.2 miSSW (210°)20.7 mph33.4 mphMostly Cloudy
8:50 AM42.8 °F37.4 °F81 %30.01 in6.2 miSSW (210°)21.9 mphMostly Cloudy
9:20 AM42.8 °F37.4 °F81 %29.98 in6.2 miSSW (210°)21.9 mphMostly Cloudy
9:50 AM42.8 °F35.6 °F76 %29.98 in6.2 miSSW (200°)23.0 mphMostly Cloudy
10:00 AM43.0 °F35.0 °F65 %30.01 in7.0 miSSW (200°)22.4 mphMostly Cloudy
10:20 AM42.8 °F35.6 °F76 %29.95 in6.2 miSSW (210°)25.3 mphScattered Clouds
10:50 AM42.8 °F35.6 °F76 %29.92 in6.2 miSSW (210°)25.3 mphScattered Clouds
11:20 AM42.8 °F35.6 °F76 %29.92 in6.2 miSSW (210°)25.3 mphScattered Clouds
11:50 AM44.6 °F37.4 °F76 %29.92 in6.2 miSSW (210°)27.6 mph39.1 mphScattered Clouds
12:20 PM44.6 °F37.4 °F76 %29.92 in6.2 miSW (220°)31.1 mph47.2 mphRainLight Rain
12:50 PM42.8 °F39.2 °F87 %29.92 in5.0 miSW (230°)27.6 mph39.1 mphRainLight Rain
1:00 PM43.0 °F39.0 °F82 %29.94 in5.0 miSW (230°)26.8 mphRainLight Rain
1:20 PM42.8 °F39.2 °F87 %29.92 in5.6 miSW (230°)29.9 mph41.4 mphRainLight Rain
1:50 PM44.6 °F41.0 °F87 %29.89 in6.2 miSW (230°)27.6 mphMostly Cloudy
2:20 PM44.6 °F41.0 °F87 %29.89 in6.2 miSW (230°)23.0 mphScattered Clouds
2:50 PM46.4 °F41.0 °F81 %29.89 in6.2 miWSW (240°)21.9 mph33.4 mphMostly Cloudy
3:20 PM46.4 °F42.8 °F87 %29.86 in6.2 miWSW (240°)24.2 mphScattered Clouds
3:50 PM46.4 °F41.0 °F81 %29.86 in6.2 miWSW (240°)27.6 mph39.1 mphScattered Clouds
4:00 PM47.0 °F41.0 °F71 %29.89 in19.0 miWSW (240°)26.8 mphPartly Cloudy
4:20 PM48.2 °F41.0 °F76 %29.86 in6.2 miWSW (250°)24.2 mph39.1 mphScattered Clouds
4:50 PM46.4 °F41.0 °F81 %29.89 in6.2 miWSW (250°)23.0 mphScattered Clouds
5:20 PM46.4 °F39.2 °F76 %29.89 in6.2 miWSW (250°)19.6 mph32.2 mphScattered Clouds
5:50 PM44.6 °F37.4 °F76 %29.89 in6.2 miWSW (250°)19.6 mphScattered Clouds
6:20 PM44.6 °F37.4 °F76 %29.92 in6.2 miWSW (250°)20.7 mphScattered Clouds
6:50 PM44.6 °F39.2 °F81 %29.92 in6.2 miWSW (250°)21.9 mphPartly Cloudy
7:00 PM45.0 °F39.0 °F72 %29.94 in7.0 miWSW (250°)22.4 mphPartly Cloudy
7:20 PM44.6 °F39.2 °F81 %29.92 in6.2 miWSW (250°)23.0 mphScattered Clouds
7:50 PM44.6 °F37.4 °F76 %29.95 in6.2 miWSW (250°)20.7 mphScattered Clouds
8:20 PM44.6 °F39.2 °F81 %29.95 in6.2 miWSW (250°)19.6 mphScattered Clouds
8:50 PM44.6 °F39.2 °F81 %29.95 inWSW (240°)20.7 mph32.2 mphClear
9:20 PM44.6 °F39.2 °F81 %29.95 inWSW (240°)23.0 mphClear
9:50 PM44.6 °F39.2 °F81 %29.95 in6.2 miWSW (240°)18.4 mphPartly Cloudy
10:00 PM44.0 °F39.0 °F77 %29.98 in7.0 miWSW (240°)17.9 mphScattered Clouds
10:20 PM44.6 °F39.2 °F81 %29.95 in6.2 miWSW (240°)18.4 mphPartly Cloudy
10:50 PM44.6 °F39.2 °F81 %29.95 in6.2 miWSW (240°)18.4 mphScattered Clouds
11:20 PM44.6 °F39.2 °F81 %29.95 in6.2 miWSW (250°)19.6 mphScattered Clouds
11:50 PM44.6 °F39.2 °F81 %29.95 in6.2 miWSW (240°)19.6 mphScattered Clouds
Hourly data recorded from EBLG, located miles away from St. Truiden, Belgium







STORIES FROM OUR PARTNERS